Location: Newark
(50.5639°N, 7.9725°E)
Time: 02:43:35
(UTC+00:00)

ISS - Visible Passes

Search period start: 01 October 2020 00:00
Search period end: 11 October 2020 00:00
Orbit: 419 x 421 km, 51.6° (Epoch: 01 October)

Date Brightness Start Highest point End Pass type
(mag) Time Alt. Az. Time Alt. Az. Time Alt. Az.
01 Oct -3.0 19:05:19 10° W 19:08:31 41° SSW 19:08:40 41° SSW visible
02 Oct -3.3 18:17:58 10° WNW 18:21:17 56° SSW 18:23:16 22° SE visible
02 Oct -0.7 19:55:42 10° WSW 19:56:14 12° WSW 19:56:14 12° WSW visible
03 Oct -3.6 17:30:39 10° WNW 17:34:01 74° SSW 17:37:23 10° ESE visible
03 Oct -1.7 19:07:53 10° W 19:10:27 20° SW 19:10:53 20° SSW visible
04 Oct -2.1 18:20:19 10° W 18:23:18 29° SSW 18:25:36 14° SSE visible
05 Oct -2.6 17:32:52 10° W 17:36:04 40° SSW 17:39:15 10° SE visible
06 Oct -1.0 18:23:14 10° WSW 18:25:04 14° SW 18:26:54 10° S visible
07 Oct -1.3 17:35:21 10° W 17:37:55 20° SW 17:40:28 10° SSE visible
